Flag Weather past 2 weeks in Rafsanjan, Iran

Now
46 °F

Light rain. Passing clouds.


Feels Like: 41 °F
Forecast: 46 / 64 °F
Wind: 12 mph from West

Location: Kerman Airport

Current Time: Nov 26, 2014 at 5:35:38 AM

Latest Report: Nov 26, 2014 at 4:30 AM


Visibility: 5 mi

Pressure: 30.12 "Hg

Humidity: 87%

Dew point: 43 °F

Location of RafsanjanLocation

Historic Weather in Rafsanjan — Graph

°F

Rafsanjan temperature yesterday

Maximum temperature yesterday: 55 °F (at 11:30 AM)
Minimum temperature yesterday: 43 °F (at 1:30 AM)
Average temperature yesterday: 49 °F

Past Weeks' High & Low Weather Summary

 TemperatureHumidityPressure
High72 °F (Nov 17, 1:30 PM)100% (Nov 24, 5:30 AM)30.42 "Hg (Nov 24, 5:30 AM)
Low21 °F (Nov 12, 6:30 AM)4% (Nov 17, 3:00 PM)30.04 "Hg (Nov 23, 1:30 PM)
Average50 °F31%30.23 "Hg
* Reported Nov 11 5:30 AM — Nov 26 4:30 AM, Rafsanjan, Weather by CustomWeather, © 2014

Note: Actual official high and low records may vary slightly from our data, if they occured in-between our weather recording intervals... More about our weather records

Advertising

Rafsanjan weather history for previous 24 hours

 ConditionsComfort  
Time TempWeatherWind HumidityBarometerVisibility
4:30 AM
Nov 26
46 °FLight rain. Passing clouds.12 mph87%30.12 "Hg5 mi
3:30 AM54 °FSprinkles. Passing clouds.35 mph63%30.07 "Hg5 mi
2:30 AM52 °FPassing clouds.5 mph67%30.04 "HgN/A
1:30 AM52 °FPassing clouds.9 mph67%30.07 "HgN/A
12:30 AM50 °FPassing clouds.7 mph71%30.07 "HgN/A
11:30 PM
Nov 25
48 °FPassing clouds.7 mph87%30.09 "HgN/A
10:30 PM48 °FPassing clouds.7 mph87%30.12 "HgN/A
9:20 PM45 °FPassing clouds.5 mph93%30.12 "Hg4 mi
8:30 PM45 °FLight rain. Passing clouds.5 mph100%30.12 "Hg3 mi
7:30 PM46 °FFog.9 mph93%30.15 "Hg3 mi
6:30 PM48 °FFog.12 mph94%30.15 "Hg3 mi
5:30 PM50 °FFog.12 mph94%30.15 "Hg2 mi
4:30 PM54 °FPartly sunny.7 mph82%30.15 "Hg2 mi
3:30 PM55 °FLight rain. Mostly cloudy.7 mph72%30.15 "Hg5 mi
2:30 PM55 °FMostly cloudy.5 mph72%30.12 "HgN/A
1:30 PM55 °FLight rain. Mostly cloudy.5 mph72%30.15 "Hg2 mi
12:30 PM55 °FMostly cloudy.7 mph63%30.15 "HgN/A
12:00 PM55 °FPartly sunny.7 mph67%30.18 "HgN/A
11:30 AM55 °FPartly sunny.7 mph63%30.18 "HgN/A
10:30 AM54 °FBroken clouds.7 mph72%30.21 "HgN/A
9:30 AM52 °FLight rain. More clouds than sun.5 mph77%30.21 "HgN/A
8:30 AM50 °FBroken clouds.5 mph76%30.21 "HgN/A
7:30 AM46 °FMore clouds than sun.No wind82%30.18 "HgN/A
6:30 AM45 °FMostly cloudy.7 mph87%30.18 "HgN/A
5:30 AM45 °FPartly cloudy.No wind81%30.15 "HgN/A
Weather by CustomWeather, © 2014

See weather overviewHow to use our weather pages